Simultaneous Nadir Overpasses (SNOs) Predictions

Prediction of SNOs between GOES-17 and AQUA Satellite Orbit:

Table of predicted SNOs for the next 14.0 days since TLE Epoch: 11/18/2023
Index Date Time (GOES-17) GOES-17 Lat,Lon AQUA Lat,Lon Distance(km) Time Diff (sec)
1 11/19/2023 08:46:46 -0.00,-104.68 -0.41,-102.82 211.82 80
2 11/19/2023 21:07:26 -0.00,-104.64 -0.70,-107.81 360.91 80
3 11/21/2023 20:55:05 0.00,-104.64 0.09,-104.15 56.12 80
4 11/23/2023 20:40:04 0.00,-104.65 0.91,-100.49 473.70 80
5 11/24/2023 09:00:35 0.00,-104.68 0.17,-105.45 87.59 80
6 11/26/2023 08:42:53 0.01,-104.68 -0.62,-101.78 330.23 80
7 11/26/2023 21:06:13 -0.02,-104.65 -0.44,-106.78 242.33 80
8 11/28/2023 20:48:30 -0.02,-104.65 0.33,-103.11 175.62 80
9 11/29/2023 09:11:40 0.02,-104.68 0.74,-108.07 385.39 80
10 12/01/2023 08:53:57 0.02,-104.68 -0.07,-104.40 32.79 80
